Location: Contre
(49.7477°N, 2.0963°E)
Time: 13:27:53
(UTC+00:00)

Meteor 2-12 Rocket - Pass Details

Date: 09 August 2024
Orbit: 936 x 956 km, 82.5° (Epoch: 14 September)

Event Time Altitude Azimuth Distance (km) Brightness Sun altitude
Rises 22:49:27 0° 358° (N) 3,612 8.8 -23.1°
Reaches altitude 10° 22:52:59 10° 19° (NNE) 2,666 7.5 -23.3°
Maximum altitude 22:56:47 17° 58° (ENE) 2,207 6.5 -23.4°
Enters shadow 23:00:24 11° 96° (E) 2,624 6.5 -23.6°
